AirNav   Bose ProFlight Series 2 Headset
 
 514 users online  

4H1 Schaumburg Municipal Helistop
Chicago/Schaumburg, Illinois, USA

GOING TO CHICAGO/SCHAUMBURG?


FAA INFORMATION EFFECTIVE 02 JANUARY 2020

Location

FAA Identifier: 4H1
Lat/Long: 42-02-53.0980N 088-03-09.2590W
42-02.884967N 088-03.154317W
42.0480828,-88.0525719
(estimated)
Elevation: 730 ft. / 222.5 m (surveyed)
Variation: 01W (1985)
From city: 24 miles NW of central business district of the associated city
Time zone: UTC -6 (UTC -5 during Daylight Saving Time)
Zip code: 60173

Heliport Operations

Heliport use: Open to the public
Activation date: 02/1990
Control tower: no
ARTCC: CHICAGO CENTER
FSS: KANKAKEE FLIGHT SERVICE STATION
NOTAMs facility: IKK (NOTAM-D service available)
Attendance: UNATNDD
Wind indicator: lighted
Segmented circle: no
Lights: SS-2200

Heliport Communications

CTAF: 122.9
WX AWOS-3 at 06C (4 nm SW): 128.275 ((847) 895-2887)
WX ASOS at PWK (8 nm NE): PHONE 847-465-0291
WX ASOS at ORD (8 nm SE): PHONE 773-462-0118
WX ASOS at DPA (12 nm SW): PHONE 630-584-2728

Nearby radio navigation aids

VOR radial/distance  VOR name  Freq  Var
OBKr205/11.3NORTHBROOK VOR/DME113.0002W
DPAr053/16.3DUPAGE VOR/DME108.4002E
JOTr020/32.4JOLIET VOR/DME112.3002E
CGTr324/38.8CHICAGO HEIGHTS VORTAC114.2002E

Heliport Services

Parking: tiedowns

Runway Information

Helipad H1

Dimensions: 25 x 25 ft. / 8 x 8 m
CONC PAD HAS 25 FT ASPH AREA ADJACENT - ALL SIDES. 12 FT X 25 FT PARKING PAD LOCATED 56 FT NW OF LANDING PAD.
Surface: concrete, in good condition
Weight bearing capacity: 
Single wheel: 12.5
Traffic pattern: leftleft
Approach lights: RLLS

Heliport Ownership and Management from official FAA records

Ownership: Publicly-owned
Owner: VILLAGE OF SCHAUMBURG
101 SCHAUMBURG CT
SCHAUMBURG, IL 60193
Phone 847-895-0007
Manager: KARYN ROBLES DIR. OF TRANSP
101 SCHAUMBURG COURT
SCHAUMBURG, IL 60193
Phone 847-923-3859

Heliport Operational Statistics

Aircraft operations: avg 67/month *
100% transient general aviation
* for 12-month period ending 31 July 2018

Additional Remarks

E111-1 NO NGT OPS UNLESS WIND INDICATOR LGTD & BCN INSTALLED; UNAUTHORIZED PERSONS SEGREGATED FM ACCESS DURG FLT OPS BY NON-OBSTG SAFETY BARRIER.
A52-H1 H1 HAS 25 FT BLDGS 400 FT & 500 FT NORTH; 25 FT BLDGS 800 FT & 900 FT NORTHWEST; 25 FT BLDG 800 FT & 1000 FT SOUTHWEST; 65 FT BLDG 1000 FT SOUTHEAST; 63 FT BLDG 550 FT WESTSOUTHWEST; 73 FT BLDG 585 FT W & 42 FT BLDG 378 FT EAST; 57 FT BLDG 316 FT SOUTH.
INGRESS/EGRESS ROUTES ARE 100 DEGS & 240-260 DEGS.
HELIPORT CLSD 2200-SR.
FOR CD CTC CHICAGO APCH AT 847-289-0926.

Instrument Procedures

There are no published instrument procedures at 4H1.

Some nearby airports with instrument procedures:

KPWK - Chicago Executive Airport (8 nm NE)
KORD - Chicago O'Hare International Airport (8 nm SE)
KDPA - DuPage Airport (12 nm SW)
3CK - Lake in the Hills Airport (15 nm NW)
C81 - Campbell Airport (17 nm N)
 
Loc | Ops | Rwys | IFR | FBO | Links
Com | Nav | Svcs | Stats | Notes
Area around 4H1 (Schaumburg Municipal Helistop)
 
Road maps at: MapQuest Bing Google
 
Aerial photo
WARNING: Photo may not be current or correct
Aerial photo of 4H1 (Schaumburg Municipal Helistop)
Do you have a better or more recent aerial photo of Schaumburg Municipal Helistop that you would like to share? If so, please send us your photo.

 
Sectional chart

 
Airport distance calculator
Flying to Schaumburg Municipal Helistop? Find the distance to fly.

From to 4H1

Sunrise and sunset
Times for 18-Jan-2020
 Local
(UTC-6)
 Zulu
(UTC)
Morning civil twilight06:4712:47
Sunrise07:1713:17
Sunset16:4822:48
Evening civil twilight17:1923:19

Current date and time
Zulu (UTC)  18-Jan-2020 06:48:57
Local (UTC-6)  18-Jan-2020 00:48:57
 
METAR
K06C 
4nm SW 
180635Z AUTO 14009G17KT 10SM OVC009 M01/M03 A2999 RMK AO2 P0001 T10131026
KORD 
7nm SE 
180633Z 14012G22KT 7SM -FZDZ BKN011 OVC020 M02/M03 A3001 RMK AO2 FZRAE27FZDZB27 PRESFR P0002 I1002 T10171028
KPWK 
8nm NE 
180552Z AUTO 14012G20KT 6SM -FZRA OVC013 M01/M03 A3009 RMK AO2 SLP196 P0000 60000 I1000 I6000 T10061033 11006 21028 410061106 56061
KDPA 
12nm SW 
180631Z 14016G23KT 10SM OVC014 M01/M03 A2998 RMK AO2 PK WND 14027/0615 FZRAE25 PRESFR P0000 I1000 T10111033
TAF
KORD 
7nm SE 
180528Z 1806/1912 14016G25KT 2SM -FZRAPL BR OVC012 TEMPO 1806/1810 FZRAPL BR OVC008 FM181100 16012KT 4SM BR VCSH OVC008 FM181400 19010KT 5SM BR OVC005 TEMPO 1816/1818 27022G36KT 1 1/2SM -SHSN BR BLSN VV007 FM181800 27022G33KT P6SM OVC015
KDPA 
12nm SW 
180528Z 1806/1906 14016G25KT 2SM -FZRAPL BR OVC012 TEMPO 1806/1810 FZRAPL BR OVC008 FM181100 16012KT 4SM BR VCSH OVC008 FM181400 19010KT 5SM BR OVC005 TEMPO 1816/1817 27022G36KT 1 1/2SM -SHSN BR BLSN VV007 FM181700 27022G33KT P6SM OVC015
NOTAMs
Click for the latest NOTAMs
NOTAMs are issued by the DoD/FAA and will open in a separate window not controlled by AirNav.

 

 
 

Would you like to see your business listed on this page?

 If your business provides an interesting product or service to pilots, flight crews, aircraft, or users of the Schaumburg Municipal Helistop, you should consider listing it here.  To start the listing process, click on the button below
 
Add a business
 

Other Pages about Schaumburg Municipal Helistop

Update a link
 
Copyright © AirNav, LLC. All rights reserved. Privacy Policy  Contact